| time (UTC) | temp C | wind direction | speed KPH | gust KPH | rain 1hr cm | rain 24hr cm | rain mn cm | humidity % | barometer mb |
| 20260506184231 | 29 | 79 | 1.6 | 9.7 | 0.00 | 0.00 | 0.00 | 78 | 1009.8 |
| 20260506183303 | 29 | 173 | 3.2 | 11.3 | 0.00 | 0.00 | 0.00 | 77 | 1009.8 |
| 20260506182229 | 28 | 153 | 3.2 | 6.4 | 0.00 | 0.00 | 0.00 | 83 | 1010.0 |
| 20260506181235 | 27 | 61 | 1.6 | 9.7 | 0.00 | 0.00 | 0.00 | 83 | 1010.2 |
| 20260506180241 | 27 | 175 | 4.8 | 8.0 | 0.00 | 0.00 | 0.00 | 86 | 1010.3 |
| 20260506175249 | 26 | 114 | 1.6 | 3.2 | 0.00 | 0.00 | 0.00 | 86 | 1010.6 |
| 20260506174300 | 26 | 132 | 1.6 | 8.0 | 0.00 | 0.00 | 0.00 | 86 | 1010.9 |
| 20260506173227 | 27 | 45 | 1.6 | 8.0 | 0.00 | 0.00 | 0.00 | 85 | 1011.1 |
| 20260506172236 | 27 | 168 | 0.0 | 6.4 | 0.00 | 0.00 | 0.00 | 85 | 1011.2 |
| 20260506171241 | 26 | 54 | 1.6 | 4.8 | 0.00 | 0.00 | 0.00 | 87 | 1011.2 |
| 20260506170233 | 26 | 52 | 0.0 | 4.8 | 0.00 | 0.00 | 0.00 | 88 | 1011.3 |
| 20260506165242 | 26 | 123 | 0.0 | 3.2 | 0.00 | 0.00 | 0.00 | 88 | 1011.3 |
| 20260506164248 | 26 | 128 | 0.0 | 3.2 | 0.00 | 0.00 | 0.00 | 87 | 1011.3 |
| 20260506163235 | 26 | 146 | 1.6 | 6.4 | 0.00 | 0.00 | 0.00 | 86 | 1011.2 |
| 20260506162227 | 27 | 164 | 1.6 | 8.0 | 0.00 | 0.00 | 0.00 | 84 | 1011.1 |
| 20260506161254 | 27 | 152 | 1.6 | 6.4 | 0.00 | 0.00 | 0.00 | 83 | 1010.8 |
| 20260506160241 | 27 | 125 | 3.2 | 9.7 | 0.00 | 0.00 | 0.00 | 84 | 1010.6 |
| 20260506155229 | 26 | 42 | 1.6 | 9.7 | 0.00 | 0.00 | 0.00 | 85 | 1010.5 |
| 20260506154239 | 26 | 99 | 1.6 | 4.8 | 0.00 | 0.00 | 0.00 | 85 | 1010.5 |
| 20260506153227 | 26 | 99 | 0.0 | 4.8 | 0.00 | 0.00 | 0.00 | 86 | 1010.4 |
| 20260506152235 | 26 | 148 | 1.6 | 8.0 | 0.00 | 0.00 | 0.00 | 85 | 1010.5 |
| 20260506151242 | 26 | 154 | 4.8 | 8.0 | 0.00 | 0.00 | 0.00 | 85 | 1010.5 |
| 20260506150303 | 26 | 74 | 1.6 | 9.7 | 0.00 | 0.00 | 0.00 | 86 | 1010.2 |
| 20260506145240 | 26 | 187 | 1.6 | 9.7 | 0.00 | 0.00 | 0.00 | 87 | 1010.1 |
| 20260506144228 | 26 | 177 | 0.0 | 6.4 | 0.00 | 0.00 | 0.00 | 88 | 1010.1 |
| 20260506143237 | 25 | 133 | 3.2 | 8.0 | 0.00 | 0.00 | 0.00 | 89 | 1009.9 |
| 20260506142229 | 25 | 169 | 3.2 | 8.0 | 0.00 | 0.00 | 0.00 | 89 | 1009.6 |
| 20260506141235 | 25 | 158 | 0.0 | 6.4 | 0.00 | 0.00 | 0.00 | 90 | 1009.5 |
| 20260506140244 | 25 | 129 | 1.6 | 6.4 | 0.00 | 0.00 | 0.00 | 90 | 1009.6 |
| 20260506135231 | 25 | 171 | 3.2 | 11.3 | 0.00 | 0.00 | 0.00 | 91 | 1009.6 |
| 20260506134242 | 25 | 44 | 0.0 | 6.4 | 0.00 | 0.00 | 0.00 | 92 | 1009.6 |
| 20260506133251 | 25 | 159 | 1.6 | 6.4 | 0.00 | 0.00 | 0.00 | 92 | 1009.6 |
| 20260506132238 | 24 | 161 | 1.6 | 11.3 | 0.00 | 0.00 | 0.00 | 92 | 1009.7 |
| 20260506131224 | 24 | 51 | 1.6 | 9.7 | 0.00 | 0.00 | 0.00 | 93 | 1009.7 |
| 20260506130257 | 24 | 180 | 4.8 | 9.7 | 0.00 | 0.00 | 0.00 | 93 | 1009.9 |
| 20260506125225 | 23 | 145 | 1.6 | 4.8 | 0.00 | 0.00 | 0.00 | 93 | 1009.8 |
| 20260506124230 | 23 | 91 | 0.0 | 4.8 | 0.00 | 0.00 | 0.00 | 93 | 1009.6 |
| 20260506123239 | 23 | 198 | 0.0 | 3.2 | 0.00 | 0.00 | 0.00 | 93 | 1009.5 |
| 20260506122231 | 23 | 59 | 0.0 | 4.8 | 0.00 | 0.00 | 0.00 | 93 | 1009.5 |
| 20260506121237 | 23 | 79 | 0.0 | 3.2 | 0.00 | 0.00 | 0.00 | 92 | 1009.4 |
| 20260506120246 | 23 | 141 | 0.0 | 4.8 | 0.00 | 0.00 | 0.00 | 92 | 1009.4 |
| 20260506115254 | 23 | 77 | 0.0 | 4.8 | 0.00 | 0.00 | 0.00 | 92 | 1009.2 |
| 20260506114239 | 23 | 144 | 1.6 | 8.0 | 0.00 | 0.00 | 0.00 | 92 | 1009.1 |
| 20260506113232 | 23 | 156 | 3.2 | 8.0 | 0.00 | 0.00 | 0.00 | 92 | 1009.1 |
| 20260506112239 | 23 | 192 | 3.2 | 8.0 | 0.00 | 0.00 | 0.00 | 92 | 1009.0 |
| 20260506111225 | 23 | 173 | 6.4 | 11.3 | 0.00 | 0.00 | 0.00 | 92 | 1008.7 |
| 20260506110253 | 23 | 171 | 3.2 | 8.0 | 0.00 | 0.00 | 0.00 | 92 | 1008.8 |
| 20260506105243 | 23 | 148 | 6.4 | 12.9 | 0.00 | 0.00 | 0.00 | 92 | 1008.6 |
| 20260506104229 | 23 | 157 | 6.4 | 16.1 | 0.00 | 0.00 | 0.00 | 92 | 1008.6 |
| 20260506103238 | 23 | 164 | 3.2 | 14.5 | 0.00 | 0.00 | 0.00 | 92 | 1008.5 |
| 20260506102231 | 23 | 160 | 4.8 | 9.7 | 0.00 | 0.00 | 0.00 | 92 | 1008.4 |
| 20260506101234 | 23 | 155 | 3.2 | 9.7 | 0.00 | 0.00 | 0.00 | 92 | 1008.6 |
| 20260506100259 | 23 | 185 | 3.2 | 14.5 | 0.00 | 0.00 | 0.00 | 92 | 1008.6 |
| 20260506095242 | 23 | 159 | 3.2 | 11.3 | 0.00 | 0.00 | 0.00 | 92 | 1008.5 |
| 20260506094225 | 24 | 164 | 4.8 | 11.3 | 0.00 | 0.00 | 0.00 | 92 | 1008.3 |
| 20260506093233 | 24 | 165 | 1.6 | 11.3 | 0.00 | 0.00 | 0.00 | 91 | 1008.2 |
| 20260506092257 | 24 | 156 | 4.8 | 14.5 | 0.00 | 0.00 | 0.00 | 91 | 1008.2 |
| 20260506091239 | 24 | 150 | 6.4 | 16.1 | 0.00 | 0.00 | 0.00 | 91 | 1008.1 |
| 20260506090244 | 24 | 168 | 6.4 | 12.9 | 0.00 | 0.00 | 0.00 | 91 | 1008.2 |
| 20260506085227 | 24 | 159 | 6.4 | 11.3 | 0.00 | 0.00 | 0.00 | 91 | 1008.2 |
| 20260506084234 | 24 | 173 | 4.8 | 11.3 | 0.00 | 0.00 | 0.00 | 91 | 1008.5 |
| 20260506083413 | 24 | 184 | 4.8 | 8.0 | 0.00 | 0.00 | 0.00 | 91 | 1008.5 |
| 20260506082243 | 24 | 188 | 3.2 | 8.0 | 0.00 | 0.00 | 0.00 | 91 | 1008.6 |
| 20260506081225 | 24 | 195 | 3.2 | 8.0 | 0.00 | 0.00 | 0.00 | 91 | 1008.7 |
| 20260506080235 | 24 | 159 | 3.2 | 6.4 | 0.00 | 0.00 | 0.00 | 91 | 1008.7 |
| 20260506073225 | 24 | 163 | 1.6 | 9.7 | 0.00 | 0.00 | 0.00 | 91 | 1009.0 |
| 20260506072250 | 24 | 163 | 4.8 | 11.3 | 0.00 | 0.00 | 0.00 | 91 | 1009.1 |
| 20260506071236 | 24 | 192 | 4.8 | 11.3 | 0.00 | 0.00 | 0.00 | 91 | 1009.4 |
| 20260506070241 | 24 | 166 | 1.6 | 8.0 | 0.00 | 0.00 | 0.00 | 90 | 1009.4 |
| 20260506062241 | 25 | 204 | 3.2 | 9.7 | 0.00 | 0.00 | 0.00 | 89 | 1009.3 |
| 20260506061244 | 25 | 177 | 4.8 | 11.3 | 0.00 | 0.00 | 0.00 | 89 | 1009.5 |
| 20260506060228 | 25 | 172 | 6.4 | 11.3 | 0.00 | 0.00 | 0.00 | 89 | 1009.5 |
| 20260506051249 | 25 | 155 | 4.8 | 11.3 | 0.00 | 0.00 | 0.00 | 88 | 1009.5 |
| 20260506050236 | 25 | 172 | 4.8 | 11.3 | 0.00 | 0.00 | 0.00 | 88 | 1009.6 |
| 20260506044224 | 25 | 133 | 4.8 | 16.1 | 0.00 | 0.00 | 0.00 | 87 | 1009.4 |
| 20260506043253 | 25 | 171 | 6.4 | 11.3 | 0.00 | 0.00 | 0.00 | 87 | 1009.3 |
| 20260506042224 | 25 | 196 | 6.4 | 11.3 | 0.00 | 0.00 | 0.00 | 87 | 1009.5 |
| 20260506041230 | 25 | 161 | 3.2 | 12.9 | 0.00 | 0.00 | 0.00 | 87 | 1009.4 |
| 20260506040238 | 25 | 176 | 4.8 | 16.1 | 0.00 | 0.00 | 0.00 | 86 | 1009.3 |
| 20260506035227 | 25 | 131 | 8.0 | 17.7 | 0.00 | 0.00 | 0.00 | 86 | 1009.2 |
| 20260506034237 | 25 | 181 | 6.4 | 14.5 | 0.00 | 0.00 | 0.00 | 86 | 1009.0 |
| 20260506033226 | 25 | 177 | 3.2 | 12.9 | 0.00 | 0.00 | 0.00 | 86 | 1009.1 |
| 20260506032234 | 25 | 158 | 3.2 | 11.3 | 0.00 | 0.00 | 0.00 | 86 | 1009.1 |
| 20260506031240 | 25 | 173 | 4.8 | 9.7 | 0.00 | 0.00 | 0.00 | 86 | 1008.8 |
| 20260506030253 | 25 | 161 | 4.8 | 12.9 | 0.00 | 0.00 | 0.00 | 85 | 1008.6 |
| 20260506025300 | 25 | 175 | 8.0 | 16.1 | 0.00 | 0.00 | 0.00 | 85 | 1008.4 |
| 20260506024225 | 25 | 185 | 6.4 | 14.5 | 0.00 | 0.00 | 0.00 | 85 | 1008.4 |
| 20260506023234 | 25 | 156 | 4.8 | 20.9 | 0.00 | 0.00 | 0.00 | 85 | 1008.3 |
| 20260506022305 | 25 | 218 | 8.0 | 16.1 | 0.00 | 0.00 | 0.00 | 84 | 1008.1 |
| 20260506021231 | 26 | 140 | 6.4 | 16.1 | 0.00 | 0.00 | 0.00 | 84 | 1008.0 |
| 20260506020300 | 26 | 178 | 6.4 | 16.1 | 0.00 | 0.00 | 0.00 | 83 | 1007.9 |
| 20260506015247 | 26 | 181 | 9.7 | 17.7 | 0.00 | 0.00 | 0.00 | 83 | 1007.8 |
| 20260506014233 | 26 | 168 | 3.2 | 17.7 | 0.00 | 0.00 | 0.00 | 82 | 1007.7 |
| 20260506013224 | 26 | 183 | 4.8 | 16.1 | 0.00 | 0.00 | 0.00 | 81 | 1007.6 |
| 20260506012232 | 26 | 133 | 8.0 | 14.5 | 0.00 | 0.00 | 0.00 | 81 | 1007.5 |
| 20260506011238 | 26 | 165 | 8.0 | 11.3 | 0.00 | 0.00 | 0.00 | 81 | 1007.3 |
| 20260506010226 | 26 | 165 | 4.8 | 16.1 | 0.00 | 0.00 | 0.00 | 80 | 1007.1 |
| 20260506005239 | 26 | 181 | 6.4 | 14.5 | 0.00 | 0.00 | 0.00 | 80 | 1007.0 |
| 20260506004226 | 26 | 171 | 6.4 | 16.1 | 0.00 | 0.00 | 0.00 | 79 | 1006.9 |
| 20260506003234 | 26 | 185 | 6.4 | 16.1 | 0.00 | 0.00 | 0.00 | 79 | 1006.9 |
| 20260506002301 | 26 | 172 | 8.0 | 20.9 | 0.00 | 0.00 | 0.00 | 78 | 1006.9 |
| 20260506001251 | 27 | 186 | 9.7 | 14.5 | 0.00 | 0.00 | 0.00 | 78 | 1006.8 |
| 20260506000259 | 27 | 186 | 9.7 | 20.9 | 0.00 | 0.00 | 0.00 | 77 | 1006.8 |
| 20260505235226 | 27 | 197 | 12.9 | 24.1 | 0.00 | 0.00 | 0.00 | 76 | 1006.8 |
| 20260505234232 | 27 | 182 | 11.3 | 19.3 | 0.00 | 0.00 | 0.00 | 77 | 1006.8 |
| 20260505233301 | 27 | 196 | 8.0 | 19.3 | 0.00 | 0.00 | 0.00 | 77 | 1006.8 |
| 20260505232231 | 27 | 188 | 14.5 | 27.4 | 0.00 | 0.00 | 0.00 | 76 | 1006.7 |
| 20260505231238 | 27 | 172 | 11.3 | 22.5 | 0.00 | 0.00 | 0.00 | 76 | 1006.7 |
| 20260505230226 | 27 | 184 | 9.7 | 20.9 | 0.00 | 0.00 | 0.00 | 76 | 1006.7 |
| 20260505225234 | 27 | 210 | 12.9 | 25.7 | 0.00 | 0.00 | 0.00 | 75 | 1006.8 |
| 20260505224303 | 28 | 190 | 9.7 | 27.4 | 0.00 | 0.00 | 0.00 | 75 | 1006.6 |
| 20260505223230 | 27 | 175 | 12.9 | 27.4 | 0.00 | 0.00 | 0.00 | 75 | 1006.8 |
| 20260505222236 | 28 | 208 | 12.9 | 25.7 | 0.00 | 0.00 | 0.00 | 74 | 1006.8 |
| 20260505221242 | 28 | 218 | 12.9 | 27.4 | 0.00 | 0.00 | 0.00 | 74 | 1006.8 |
| 20260505220229 | 28 | 184 | 12.9 | 29.0 | 0.00 | 0.00 | 0.00 | 75 | 1006.8 |
| 20260505215301 | 28 | 175 | 11.3 | 27.4 | 0.00 | 0.00 | 0.00 | 75 | 1007.0 |
| 20260505214244 | 28 | 220 | 14.5 | 24.1 | 0.00 | 0.00 | 0.00 | 74 | 1007.3 |
| 20260505213233 | 28 | 176 | 12.9 | 24.1 | 0.00 | 0.00 | 0.00 | 75 | 1007.4 |
| 20260505212301 | 28 | 173 | 12.9 | 24.1 | 0.00 | 0.00 | 0.00 | 75 | 1007.5 |
| 20260505211230 | 28 | 163 | 14.5 | 29.0 | 0.00 | 0.00 | 0.00 | 75 | 1007.6 |
| 20260505210240 | 28 | 173 | 14.5 | 27.4 | 0.00 | 0.00 | 0.00 | 75 | 1007.8 |
| 20260505205228 | 28 | 162 | 11.3 | 24.1 | 0.00 | 0.00 | 0.00 | 75 | 1007.9 |
| 20260505204234 | 28 | 159 | 14.5 | 25.7 | 0.00 | 0.00 | 0.00 | 75 | 1007.9 |
| 20260505203228 | 28 | 129 | 14.5 | 25.7 | 0.00 | 0.00 | 0.00 | 75 | 1008.1 |
| 20260505202236 | 28 | 181 | 12.9 | 25.7 | 0.00 | 0.00 | 0.00 | 76 | 1008.2 |
| 20260505201242 | 28 | 221 | 16.1 | 24.1 | 0.00 | 0.00 | 0.00 | 75 | 1008.3 |
| 20260505200252 | 27 | 202 | 11.3 | 24.1 | 0.00 | 0.00 | 0.00 | 77 | 1008.5 |
| 20260505195241 | 27 | 204 | 9.7 | 22.5 | 0.00 | 0.00 | 0.00 | 78 | 1008.6 |
| 20260505194228 | 27 | 67 | 8.0 | 19.3 | 0.00 | 0.00 | 0.00 | 77 | 1008.8 |
| 20260505193237 | 27 | 186 | 9.7 | 19.3 | 0.00 | 0.00 | 0.00 | 78 | 1008.9 |
| 20260505192225 | 27 | 198 | 6.4 | 19.3 | 0.00 | 0.00 | 0.00 | 78 | 1009.0 |
| 20260505191234 | 27 | 185 | 9.7 | 17.7 | 0.00 | 0.00 | 0.00 | 78 | 1009.0 |
| 20260505190303 | 27 | 169 | 11.3 | 22.5 | 0.00 | 0.00 | 0.00 | 78 | 1009.1 |
| 20260505185230 | 27 | 187 | 9.7 | 19.3 | 0.00 | 0.00 | 0.00 | 79 | 1009.1 |